COSMOS 2251 DEB, 35885

Orbit data source: Space-Track

COSMOS 2251 DEB, 35885 is space debris in LEO originally from a launch on Wed, 16 Jun 1993 UTC launched from the Plesetsk Missile And Space Complex (PKMTR). The debris from Iridium 33, an American commercial communications satellite, has been tracked extensively since its accidental collision with the defunct Russian satellite Cosmos 2251 in 2009. This event, occurring at high speed in low Earth orbit (LEO), generated thousands of pieces of space debris, significantly increasing the risk of further collisions. The Iridium 33 debris cloud has impacted space traffic management and orbital debris mitigation strategies, making it a subject of ongoing study in space situational awareness.

Loading next visibility...
Identifier
35885, 1993-036ATY
Orbit
LEO
Country
Flag of CISCIS
Related business
Manufacturer
Unknown
Mission
Spacecraft
Bus & Motor
Unknown
Mass
Unknown
Launch date (UTC)
1993-06-16 (33 years ago)
Launch vehicle
Unknown
Launch site
Plesetsk Missile And Space Complex (PKMTR)
Object type
Payload
Rocket body
Debris
Shape & HBR
Unknown shape, 0.1 m
Radar Cross Section
Small (<0.1 m²)

Expand to show TLE details & history
Last TLE update: 9 hours ago

TLE from 9 hours ago
0 COSMOS 2251 DEB
1 35885U 93036ATY 26071.53476367  .00000781  00000-0  26753-3 0  9999
2 35885  74.0275 129.4437 0024068 195.9720 164.0678 14.37706152663068
Epoch: 2026-03-12T12:50Z
TLE epoch observation values (Epoch: 2026-03-12T12:50:03.581Z)
Latitude
0.00002°
Longitude
126.74552°
Altitude
785.24 km
Speed
7.453 km/s
True Right ascension
08h 37m 46s
True Declination
0° 00' 00"
Sunlit
Object was in full shadow at epoch
Visualization orbit readout
Latitude
Unknown
Longitude
Unknown
Altitude
Unknown
Speed
Unknown
Apparent Right ascension
Unknown
Apparent Declination
Unknown
Sunlit
N/A
Visualization observer readout
Local Sidereal Time
02:09:24
Azimuth
Unknown
Elevation
Unknown
Doppler factor
Unknown
Orbital elements
Apogee altitude
780.899 km
Perigee altitude
746.521 km
Semi-major axis
7,141.847 km
Eccentricity
0.00241
Inclination
74.0275°
RAAN
129.4437°
Arg. of periapsis
195.972°
True anomaly
164.14329°
Mean anomaly
164.0678°
Eccentric anomaly
164.10557°
Mean motion
3.59606 °/min
Orbital period
100.11 mins
BSTAR
0.00026753
Loading maneuver chart data...
Computing Atmospheric mass density...

Documentation

Showing up to 5 results
|